When you browse on this site, cookies collect data to enhance your experience and personalize the content and advertising you see.
Visit our Privacy Policy to learn more. By continuing to use the site, you agree to this use of cookies and data.
  • In France
  • List of Countries
  • For 7 days
  • Water Temperature
  • Weather Map
  • Weather Widgets
  • user-avatar
    Login

    Hourly Weather Sunny Beach

    Today, 22 January, Wednesday

    Time Temperature Precipitation Wind Pressure Humidity
    00:00 -2°C° 0 mm 2 mps 749 mmHg 79%
    01:00 -2°C° 0 mm 2 mps 749 mmHg 79%
    02:00 -2°C° 0 mm 2 mps 748 mmHg 78%
    03:00 -2°C° 0 mm 2 mps 748 mmHg 77%
    04:00 -2°C° 0 mm 2 mps 748 mmHg 76%
    05:00 0°C° 0 mm 1 mps 747 mmHg 74%
    06:00 -2°C° 0 mm 2 mps 747 mmHg 73%
    07:00 -2°C° 0 mm 2 mps 747 mmHg 71%
    08:00 -2°C° 0 mm 2 mps 746 mmHg 70%
    09:00 +1°C° 0 mm 2 mps 746 mmHg 62%
    10:00 +3°C° 0 mm 2 mps 746 mmHg 54%
    11:00 +4°C° 0 mm 3 mps 746 mmHg 47%
    12:00 +5°C° 0 mm 3 mps 745 mmHg 46%
    13:00 +7°C° 0 mm 3 mps 744 mmHg 46%
    14:00 +7°C° 0 mm 3 mps 743 mmHg 45%
    15:00 +5°C° 0 mm 3 mps 743 mmHg 50%
    16:00 +4°C° 0 mm 3 mps 742 mmHg 55%
    17:00 +3°C° 0 mm 2 mps 741 mmHg 60%
    18:00 +2°C° 0 mm 3 mps 741 mmHg 61%
    19:00 +1°C° 0 mm 3 mps 740 mmHg 61%
    20:00 +1°C° 0 mm 3 mps 740 mmHg 62%
    21:00 0°C° 0 mm 3 mps 739 mmHg 63%
    22:00 0°C° 0 mm 3 mps 739 mmHg 64%
    23:00 0°C° 0 mm 3 mps 738 mmHg 65%

    Tomorrow, 23 January, Thursday

    Time Temperature Precipitation Wind Pressure Humidity
    00:00 +1°C° 0 mm 2 mps 738 mmHg 64%
    01:00 +1°C° 0 mm 2 mps 738 mmHg 63%
    02:00 +1°C° 0 mm 2 mps 739 mmHg 63%
    03:00 0°C° 0 mm 3 mps 739 mmHg 60%
    04:00 -1°C° 0 mm 4 mps 740 mmHg 58%
    05:00 -2°C° 0 mm 6 mps 740 mmHg 56%
    06:00 -2°C° 0 mm 5 mps 741 mmHg 60%
    07:00 -2°C° 0 mm 4 mps 742 mmHg 64%
    08:00 -3°C° 0 mm 4 mps 743 mmHg 69%
    09:00 -1°C° 0 mm 4 mps 744 mmHg 62%
    10:00 0°C° 0 mm 5 mps 745 mmHg 56%
    11:00 +2°C° 0 mm 6 mps 745 mmHg 50%
    12:00 +2°C° 0 mm 6 mps 745 mmHg 48%
    13:00 +3°C° 0 mm 5 mps 745 mmHg 45%
    14:00 +3°C° 0 mm 5 mps 745 mmHg 43%
    15:00 +4°C° 0 mm 4 mps 745 mmHg 47%
    16:00 +3°C° 0 mm 4 mps 745 mmHg 52%
    17:00 +2°C° 0 mm 3 mps 746 mmHg 56%
    18:00 +1°C° 0 mm 3 mps 746 mmHg 61%
    19:00 0°C° 0 mm 3 mps 746 mmHg 65%
    20:00 0°C° 0 mm 3 mps 746 mmHg 69%
    21:00 -1°C° 0 mm 3 mps 747 mmHg 71%
    22:00 -1°C° 0 mm 2 mps 747 mmHg 72%
    23:00 -1°C° 0 mm 2 mps 748 mmHg 73%

    Day after tomorrow, 24 January, Friday

    Time Temperature Precipitation Wind Pressure Humidity
    00:00 -2°C° 0 mm 2 mps 748 mmHg 74%
    01:00 0°C° 0 mm 1 mps 748 mmHg 74%
    02:00 0°C° 0 mm 1 mps 748 mmHg 74%
    03:00 0°C° 0 mm 1 mps 748 mmHg 74%
    04:00 0°C° 0 mm 1 mps 748 mmHg 74%
    05:00 0°C° 0 mm 1 mps 747 mmHg 74%
    06:00 0°C° 0 mm 1 mps 748 mmHg 73%
    07:00 0°C° 0 mm 1 mps 748 mmHg 71%
    08:00 0°C° 0 mm 1 mps 748 mmHg 70%
    09:00 +2°C° 0 mm 1 mps 748 mmHg 61%
    10:00 +4°C° 0 mm 1 mps 748 mmHg 52%
    11:00 +4°C° 0 mm 2 mps 748 mmHg 43%
    12:00 +5°C° 0 mm 2 mps 748 mmHg 42%
    13:00 +5°C° 0 mm 3 mps 748 mmHg 41%
    14:00 +5°C° 0 mm 3 mps 747 mmHg 40%
    15:00 +4°C° 0 mm 3 mps 747 mmHg 45%
    16:00 +3°C° 0 mm 3 mps 746 mmHg 50%
    17:00 +2°C° 0 mm 3 mps 746 mmHg 55%
    18:00 +1°C° 0 mm 3 mps 746 mmHg 56%
    19:00 0°C° 0 mm 3 mps 746 mmHg 58%
    20:00 0°C° 0 mm 3 mps 746 mmHg 60%
    21:00 0°C° 0 mm 3 mps 746 mmHg 61%
    22:00 -1°C° 0 mm 3 mps 745 mmHg 61%
    23:00 -1°C° 0 mm 3 mps 745 mmHg 62%

    25 January, Saturday

    Time Temperature Precipitation Wind Pressure Humidity
    00:00 -1°C° 0 mm 3 mps 745 mmHg 64%
    01:00 -1°C° 0 mm 3 mps 744 mmHg 65%
    02:00 -1°C° 0 mm 3 mps 744 mmHg 66%
    03:00 -1°C° 0 mm 3 mps 743 mmHg 69%
    04:00 -1°C° 0 mm 2 mps 743 mmHg 73%
    05:00 -2°C° 0 mm 2 mps 743 mmHg 76%
    06:00 -2°C° 0 mm 2 mps 743 mmHg 78%
    07:00 -2°C° 0 mm 2 mps 743 mmHg 80%
    08:00 -2°C° 0 mm 2 mps 742 mmHg 82%
    09:00 +1°C° 0 mm 3 mps 743 mmHg 76%
    10:00 +3°C° 0 mm 3 mps 743 mmHg 71%
    11:00 +5°C° 0 mm 3 mps 743 mmHg 65%
    12:00 +7°C° 0 mm 3 mps 742 mmHg 64%
    13:00 +7°C° 0 mm 3 mps 742 mmHg 62%
    14:00 +7°C° 0 mm 4 mps 741 mmHg 61%
    15:00 +7°C° 0 mm 3 mps 741 mmHg 67%
    16:00 +5°C° 0 mm 3 mps 741 mmHg 72%
    17:00 +5°C° 0 mm 2 mps 741 mmHg 78%
    18:00 +5°C° 0 mm 2 mps 741 mmHg 80%
    19:00 +4°C° 0 mm 2 mps 741 mmHg 83%
    20:00 +4°C° 0 mm 2 mps 741 mmHg 85%
    21:00 +3°C° 0 mm 2 mps 741 mmHg 85%
    22:00 +3°C° 0 mm 2 mps 741 mmHg 85%
    23:00 +3°C° 0 mm 2 mps 741 mmHg 85%

    26 January, Sunday

    Time Temperature Precipitation Wind Pressure Humidity
    00:00 +3°C° 0 mm 2 mps 741 mmHg 85%
    01:00 +3°C° 0 mm 2 mps 741 mmHg 85%
    02:00 +2°C° 0 mm 2 mps 741 mmHg 85%
    03:00 +2°C° 0 mm 2 mps 741 mmHg 84%
    04:00 +2°C° 0 mm 2 mps 741 mmHg 84%
    05:00 +2°C° 0 mm 2 mps 741 mmHg 83%
    06:00 +3°C° 0 mm 2 mps 741 mmHg 80%
    07:00 +3°C° 0 mm 2 mps 742 mmHg 78%
    08:00 +3°C° 0 mm 2 mps 742 mmHg 75%
    09:00 +5°C° 0 mm 2 mps 742 mmHg 69%
    10:00 +6°C° 0 mm 2 mps 743 mmHg 63%
    11:00 +8°C° 0 mm 2 mps 743 mmHg 57%
    12:00 +8°C° 0 mm 2 mps 742 mmHg 56%
    13:00 +9°C° 0 mm 2 mps 742 mmHg 55%
    14:00 +10°C° 0 mm 2 mps 742 mmHg 54%
    15:00 +10°C° 0 mm 1 mps 742 mmHg 61%
    16:00 +9°C° 0 mm 1 mps 741 mmHg 68%
    17:00 +8°C° 0 mm 1 mps 741 mmHg 75%
    18:00 +8°C° 0 mm 1 mps 741 mmHg 80%
    19:00 +7°C° 0 mm 1 mps 741 mmHg 84%
    20:00 +7°C° 0 mm 1 mps 741 mmHg 89%
    21:00 +7°C° 0 mm 1 mps 741 mmHg 90%
    22:00 +7°C° 0 mm 1 mps 741 mmHg 91%
    23:00 +7°C° 0 mm 1 mps 741 mmHg 92%

    27 January, Monday

    Time Temperature Precipitation Wind Pressure Humidity
    00:00 +7°C° 0 mm 1 mps 741 mmHg 91%
    01:00 +7°C° 0 mm 1 mps 741 mmHg 90%
    02:00 +7°C° 0 mm 1 mps 740 mmHg 89%
    03:00 +7°C° 0 mm 1 mps 740 mmHg 88%
    04:00 +6°C° 0 mm 2 mps 740 mmHg 88%
    05:00 +7°C° 0 mm 2 mps 740 mmHg 88%
    06:00 +7°C° 0 mm 2 mps 740 mmHg 89%
    07:00 +7°C° 0 mm 2 mps 739 mmHg 90%
    08:00 +7°C° 0 mm 2 mps 739 mmHg 91%
    09:00 +8°C° 0.1 mm 2 mps 740 mmHg 90%
    10:00 +8°C° 0.1 mm 2 mps 740 mmHg 90%
    11:00 +9°C° 0.1 mm 2 mps 740 mmHg 89%
    12:00 +9°C° 0.5 mm 2 mps 740 mmHg 89%
    13:00 +9°C° 0.5 mm 2 mps 739 mmHg 90%
    14:00 +10°C° 0.5 mm 1 mps 739 mmHg 90%
    15:00 +9°C° 0.7 mm 2 mps 739 mmHg 91%
    16:00 +8°C° 0.7 mm 2 mps 739 mmHg 93%
    17:00 +8°C° 0.7 mm 2 mps 739 mmHg 94%
    18:00 +9°C° 0.2 mm 1 mps 739 mmHg 94%
    19:00 +8°C° 0.2 mm 1 mps 739 mmHg 94%
    20:00 +8°C° 0.2 mm 1 mps 740 mmHg 94%
    21:00 +8°C° 0.1 mm 1 mps 740 mmHg 94%
    22:00 +7°C° 0.1 mm 1 mps 740 mmHg 93%
    23:00 +7°C° 0.1 mm 1 mps 741 mmHg 93%
    Show more